レモン彗星

423P/Lemmon (2021)

English version
Home page
Updated on August 21, 2021

---------------------------------------------------------------------

・ プロフィール

符号 423P/2021 A12
検出日 2021年1月9日
検出光度 22.5等
検出者 Gemini Multi-Object Spectrograph (GMOS) (Mauna Kea)

・ 軌道要素

Epoch 2021 Sept. 23.0 TT = JDT 2459480.5                                        
T 2021 Sept. 20.01229 TT                                Rudenko                 
q   5.4210049            (2000.0)            P               Q                  
n   0.06440664     Peri.   80.40782     -0.39655866     -0.91454121             
a   6.1638059      Node    33.31385     +0.77502617     -0.38007201             
e   0.1205101      Incl.    8.34618     +0.49201185     -0.13841839             
P  15.3                                                                         
From 74 observations 2008 Feb. 8-2021 Jan. 15, mean residual 0".5.              

・ 光度変化

        H = 15.5  G = 0.15

        ※ 灰色の曲線は、H = 12.0  G = 0.15 の光度曲線です。

---------------------------------------------------------------------

軌道要素はM.P.E.C. 2021-M89に掲載されたものです。
光度グラフはComet for Windowsで作成したものです。

---------------------------------------------------------------------

Copyright(C) Seiichi Yoshida (comet@aerith.net). All rights reserved.